[[{"header":{"parameterUnit":"m.s-1","parameterCategory":1,"la1":30.2991,"la2":30.254,"lo1":-89.0895,"lo2":-89.0444,"dy":0.0017,"dx":0.0017,"nx":28,"ny":28,"refTime":"2024-04-17T09:00:00:Z","depth":0,"parameterNumber":2,"parameterNumberName":"U-component_of_WINDS"},"data":[0,0,0,0,0,0,0,0,0,0,0,0,0,0,0,0,0,0,0,0,0,0,0,0,0,0,0,0,0,0,0,0,0,0,0,0,0,0,0,0,0,0,0,0,0,0,0,0,0,0,0,0,0,0,0,0,0,0,-2.3681,-2.3684,0,-2.3951,-2.3954,-2.3957,-2.4064,-2.4064,-2.4063,-2.4062,-2.4339,-2.4347,-2.4355,0,0,0,0,0,0,0,0,0,0,0,0,0,-2.3261,-2.3268,-2.3681,-2.3684,-2.3688,-2.395,-2.3954,-2.3958,-2.4064,-2.4064,-2.4063,-2.4062,-2.4336,-2.4346,-2.4355,0,0,0,0,0,0,0,0,0,0,0,0,0,-2.3478,-2.327,-2.3681,-2.3773,-2.3784,-2.395,-2.3954,-2.3959,-2.4065,-2.4063,-2.4062,-2.4061,-2.4333,-2.4345,-2.4357,-2.4452,0,0,-2.4394,-2.4399,0,0,0,0,0,0,0,0,-2.3466,-2.3493,-2.3756,-2.3767,-2.3779,-2.3973,-2.3908,-2.4124,-2.4065,-2.3958,-2.4062,-2.4061,-2.4218,-2.424,-2.4292,-2.4465,-2.4476,-2.4395,-2.4402,-2.4407,-2.441,0,0,0,0,0,0,0,-2.345,-2.3482,-2.3788,-2.3759,-2.3774,-2.3801,-2.3831,-2.3949,-2.409,-2.3967,-2.3976,-2.4006,-2.4224,-2.4281,-2.43,-2.448,-2.4394,-2.4405,-2.4412,-2.4417,-2.4746,-2.4747,0,0,0,0,0,0,-2.342,-2.3469,-2.3779,-2.3796,-2.3617,-2.381,-2.3843,-2.3912,-2.4089,-2.4116,-2.4007,-2.401,-2.4261,-2.4286,-2.431,-2.4433,-2.4407,-2.4418,-2.4425,-2.4744,-2.4746,-2.4748,0,0,0,0,0,0,-2.341,-2.3446,-2.3769,-2.3635,-2.3678,-2.3818,-2.3894,-2.3918,-2.3974,-2.4119,-2.4145,-2.4038,-2.4261,-2.4293,-2.4416,-2.4444,-2.4424,-2.4435,-2.4742,-2.4745,-2.4747,-2.468,0,0,0,0,0,0,-2.3398,-2.3442,-2.3479,-2.3635,-2.3685,-2.3869,-2.3896,-2.3924,-2.3994,-2.4001,-2.4156,-2.418,-2.4262,-2.4397,-2.4428,-2.4461,-2.4444,-2.474,-2.4743,-2.4746,-2.468,-2.468,-2.4679,0,0,0,0,0,-2.3382,-2.3449,-2.348,-2.3517,-2.3734,-2.387,-2.3899,-2.3992,-2.3996,-2.4035,-2.4128,-2.4175,-2.4436,-2.4409,-2.4444,-2.4481,-2.4739,-2.4743,-2.4746,-2.468,-2.468,-2.4679,0,0,0,0,0,0,-2.3293,-2.3471,-2.3508,-2.3627,-2.3733,-2.3888,-2.394,-2.3988,-2.4095,-2.4097,-2.4209,-2.4243,-2.4356,-2.4432,-2.4398,-2.4583,-2.4591,-2.4602,-2.4529,-2.453,-2.4529,-2.4509,-2.4454,0,0,0,0,0,-2.3287,-2.3383,-2.3534,-2.3625,-2.3676,-2.3798,-2.3861,-2.3924,-2.4038,-2.4084,-2.4186,-2.4296,-2.4403,-2.4471,-2.4577,-2.4692,-2.4728,-2.4735,-2.4734,-2.4733,-2.4741,-2.4808,-2.4813,-2.4759,-2.4759,-2.4759,0,0,-2.3276,-2.3386,-2.3439,-2.361,-2.3699,-2.3796,-2.3835,-2.3936,-2.401,-2.4099,-2.4222,-2.4301,-2.443,-2.455,-2.4608,-2.4616,-2.4764,-2.4737,-2.4735,-2.4744,-2.4812,-2.4817,-2.4822,-2.4761,-2.4761,-2.4761,0,0,-2.3306,-2.3398,-2.3484,-2.3573,-2.3708,-2.3789,-2.3809,-2.3959,-2.4015,-2.4139,-2.4209,-2.4298,-2.448,-2.457,-2.4639,-2.4704,-2.4752,-2.4736,-2.4733,-2.4797,-2.4801,-2.4806,-2.483,-2.4837,-2.4743,-2.4743,-2.4743,0,-2.3275,-2.3424,-2.3522,-2.362,-2.3693,-2.3779,-2.3868,-2.3949,-2.4112,-2.4161,-2.4168,-2.4399,-2.4492,-2.4634,-2.465,-2.4703,-2.4731,-2.4718,-2.4793,-2.4798,-2.4804,-2.4828,-2.4836,-2.474,-2.4741,-2.4741,-2.4741,0,-2.338,-2.3482,-2.3535,-2.369,-2.377,-2.3862,-2.3976,-2.4045,-2.4101,-2.4182,-2.4308,-2.4423,-2.4555,-2.4594,-2.4649,-2.4745,-2.4745,-2.4771,-2.4782,-2.4804,-2.4829,-2.4839,-2.4736,-2.4737,-2.4738,-2.4739,0,0,-2.3359,-2.3568,-2.3586,-2.3658,-2.3814,-2.3895,-2.3992,-2.4121,-2.4178,-2.4288,-2.4373,-2.4526,-2.4551,-2.463,-2.4697,-2.4753,-2.4798,-2.4773,-2.4777,-2.4773,-2.4911,-2.489,-2.4899,-2.4831,-2.4833,-2.4835,-2.49,0,-2.3409,-2.3586,-2.3678,-2.3816,-2.3912,-2.3996,-2.4081,-2.4186,-2.4265,-2.4358,-2.4446,-2.4552,-2.4577,-2.4626,-2.4685,-2.478,-2.4827,-2.4777,-2.4911,-2.4915,-2.4875,-2.4912,-2.489,-2.4946,-2.491,-2.4912,-2.4913,0,-2.3491,-2.36,-2.3747,-2.3893,-2.3937,-2.4011,-2.4137,-2.4226,-2.4348,-2.4401,-2.4489,-2.4556,-2.4662,-2.4666,-2.4815,-2.4778,-2.4839,-2.4894,-2.4898,-2.4914,-2.4914,-2.4928,-2.4966,-2.4973,-2.4929,-2.4928,-2.4926,0,-2.3461,-2.3645,-2.3757,-2.3816,-2.3989,-2.4039,-2.4114,-2.4234,-2.4306,-2.4417,-2.4465,-2.4587,-2.4653,-2.4746,-2.4844,-2.4837,-2.4984,-2.4995,-2.5031,-2.5029,-2.5058,-2.5054,-2.5105,-2.5097,-2.5097,-2.5097,-2.5097,0,-2.3507,-2.3594,-2.3746,-2.3814,-2.3915,-2.4021,-2.4117,-2.4199,-2.4305,-2.4392,-2.4473,-2.4553,-2.4677,-2.4773,-2.485,-2.4962,-2.4992,-2.5038,-2.5058,-2.5031,-2.5025,-2.5072,-2.507,-2.5099,-2.5099,-2.5098,-2.5098,0,-2.349,-2.3595,-2.3723,-2.3877,-2.3918,-2.3985,-2.4117,-2.4187,-2.4271,-2.438,-2.4411,-2.4542,-2.4659,-2.4766,-2.4922,-2.4974,-2.5088,-2.5112,-2.5046,-2.5057,-2.5087,-2.5083,-2.517,-2.5187,-2.5166,-2.5166,-2.5166,0,-2.3512,-2.3581,-2.3742,-2.3806,-2.3879,-2.3981,-2.4055,-2.4163,-2.4236,-2.4381,-2.4435,-2.4558,-2.4662,-2.4845,-2.4954,-2.5074,-2.5103,-2.5125,-2.5121,-2.5092,-2.5103,-2.5098,-2.5105,-2.5123,-2.5123,-2.5122,-2.5122,0,-2.3541,-2.359,-2.3693,-2.3815,-2.3901,-2.4002,-2.4106,-2.4154,-2.4282,-2.4361,-2.4482,-2.4562,-2.4722,-2.4843,-2.4976,-2.5054,-2.511,-2.5123,-2.5138,-2.5111,-2.5069,-2.5092,-2.5043,-2.512,-2.512,-2.512,-2.5121,-2.5121,-2.3545,-2.361,-2.3734,-2.3847,-2.3936,-2.4032,-2.4106,-2.4199,-2.4301,-2.4439,-2.4497,-2.4619,-2.4741,-2.4925,-2.5003,-2.5101,-2.5112,-2.5133,-2.5139,-2.5143,-2.5137,-2.5054,-2.5126,-2.5126,-2.5126,-2.5126,-2.5126,0,-2.3577,-2.3661,-2.3764,-2.3907,-2.3996,-2.4041,-2.4159,-2.423,-2.4337,-2.4446,-2.4547,-2.4686,-2.4805,-2.4924,-2.5049,-2.5105,-2.5134,-2.5134,-2.5131,-2.5149,-2.512,-2.5095,-2.5109,-2.5109,-2.5109,-2.5109,-2.5109,-2.5109,-2.3605,-2.3718,-2.3781,-2.394,-2.4025,-2.4145,-2.4208,-2.4298,-2.4385,-2.4537,-2.4636,-2.4713,-2.4827,-2.4961,-2.5072,-2.5104,-2.5147,-2.514,-2.5179,-2.515,-2.515,-2.5151,-2.5127,-2.5148,-2.5148,-2.52,-2.52,-2.52]},{"header":{"parameterUnit":"m.s-1","parameterCategory":1,"la1":30.2991,"la2":30.254,"lo1":-89.0895,"lo2":-89.0444,"dy":0.0017,"dx":0.0017,"nx":28,"ny":28,"refTime":"2024-04-17T09:00:00:Z","depth":0,"parameterNumber":3,"parameterNumberName":"V-component_of_WINDS"},"data":[0,0,0,0,0,0,0,0,0,0,0,0,0,0,0,0,0,0,0,0,0,0,0,0,0,0,0,0,0,0,0,0,0,0,0,0,0,0,0,0,0,0,0,0,0,0,0,0,0,0,0,0,0,0,0,0,0,0,1.8587,1.8587,0,1.8611,1.8612,1.8612,1.8559,1.8557,1.8556,1.8554,1.8581,1.8584,1.8586,0,0,0,0,0,0,0,0,0,0,0,0,0,1.8496,1.8498,1.8586,1.8587,1.8587,1.8611,1.8612,1.8612,1.8559,1.8557,1.8555,1.8553,1.8581,1.8583,1.8586,0,0,0,0,0,0,0,0,0,0,0,0,0,1.853,1.8499,1.8586,1.8564,1.8562,1.8611,1.8612,1.8612,1.856,1.8557,1.8555,1.8552,1.858,1.8583,1.8587,1.8659,0,0,1.8597,1.8599,0,0,0,0,0,0,0,0,1.8528,1.8533,1.8567,1.8565,1.8563,1.8579,1.859,1.8628,1.856,1.8561,1.8554,1.8551,1.8583,1.8586,1.8596,1.8661,1.8662,1.8598,1.86,1.8601,1.8602,0,0,0,0,0,0,0,1.8526,1.8532,1.8596,1.8567,1.8565,1.8553,1.8555,1.8597,1.8586,1.8561,1.8557,1.856,1.8582,1.8593,1.8597,1.8662,1.8597,1.8601,1.8603,1.8604,1.8789,1.8792,0,0,0,0,0,0,1.8526,1.853,1.8595,1.8597,1.8539,1.8557,1.8559,1.8577,1.8585,1.8584,1.8562,1.8558,1.8588,1.8593,1.8597,1.8684,1.8601,1.8604,1.8606,1.8787,1.879,1.8793,0,0,0,0,0,0,1.8524,1.8532,1.8594,1.8563,1.857,1.8561,1.8582,1.8579,1.859,1.8587,1.8585,1.8576,1.8587,1.8592,1.8645,1.8685,1.8606,1.8609,1.8783,1.8788,1.8792,1.8859,0,0,0,0,0,0,1.8522,1.8532,1.8559,1.8564,1.8572,1.8641,1.8584,1.8581,1.8596,1.859,1.8599,1.8598,1.8585,1.864,1.8648,1.8688,1.8612,1.878,1.8785,1.879,1.8853,1.8865,1.8875,0,0,0,0,0,1.8519,1.8577,1.8561,1.8569,1.8605,1.8643,1.8648,1.8631,1.86,1.8627,1.8625,1.8598,1.8679,1.8646,1.8655,1.8696,1.8777,1.8784,1.879,1.8848,1.8862,1.8874,0,0,0,0,0,0,1.8578,1.8577,1.8559,1.862,1.8632,1.8634,1.8668,1.8646,1.8668,1.8662,1.864,1.8643,1.87,1.8703,1.8666,1.8768,1.8723,1.8731,1.8764,1.8777,1.8788,1.8787,1.8615,0,0,0,0,0,1.8598,1.8628,1.8626,1.868,1.8687,1.8677,1.8693,1.8679,1.8691,1.8696,1.8697,1.8711,1.8739,1.8758,1.8784,1.8853,1.8855,1.8886,1.8897,1.8906,1.8914,1.8952,1.8966,1.8814,1.8814,1.8814,0,0,1.864,1.8643,1.8663,1.8692,1.87,1.8733,1.8682,1.8718,1.8743,1.8701,1.8751,1.8753,1.8766,1.8827,1.8854,1.8832,1.8956,1.8914,1.8921,1.8924,1.896,1.8975,1.8987,1.8818,1.8818,1.8817,0,0,1.8733,1.8738,1.8784,1.8793,1.8805,1.8798,1.8809,1.8815,1.8814,1.8863,1.8834,1.8863,1.8912,1.8923,1.8935,1.9034,1.901,1.9043,1.9101,1.9138,1.915,1.9161,1.9197,1.9211,1.9051,1.9051,1.9051,0,1.8783,1.8831,1.8811,1.885,1.8864,1.8828,1.8875,1.8885,1.8905,1.8916,1.889,1.8952,1.8958,1.9023,1.9047,1.9057,1.9071,1.9042,1.915,1.916,1.917,1.9205,1.9218,1.9055,1.9054,1.9054,1.9054,0,1.8893,1.8927,1.8963,1.8983,1.9001,1.9045,1.9032,1.9053,1.9038,1.9034,1.9085,1.9092,1.9119,1.9133,1.9118,1.9196,1.9181,1.9153,1.9108,1.9189,1.9221,1.9234,1.9061,1.9059,1.9058,1.9057,0,0,1.9025,1.9033,1.9047,1.9056,1.9067,1.9093,1.9136,1.9162,1.9181,1.9196,1.9232,1.9275,1.9249,1.9263,1.9249,1.9282,1.9362,1.925,1.925,1.9272,1.9449,1.9471,1.9487,1.9346,1.9348,1.935,1.9448,0,1.9118,1.9189,1.9173,1.9244,1.9276,1.9242,1.9279,1.929,1.9288,1.9315,1.9313,1.9344,1.9307,1.9315,1.9346,1.9346,1.9397,1.9338,1.938,1.9382,1.9379,1.9504,1.9527,1.962,1.9461,1.9463,1.9464,0,1.9236,1.9256,1.9331,1.9337,1.935,1.9383,1.9407,1.9433,1.9446,1.9442,1.9458,1.9438,1.9481,1.9435,1.9494,1.9455,1.9471,1.9473,1.9476,1.9481,1.9429,1.9513,1.9648,1.9663,1.9484,1.9482,1.9481,0,1.9327,1.9372,1.9422,1.9431,1.944,1.9464,1.9469,1.9479,1.9497,1.9517,1.9529,1.9554,1.9569,1.959,1.9578,1.9545,1.9641,1.9593,1.964,1.9641,1.9663,1.9662,1.9805,1.9671,1.9671,1.9671,1.967,0,1.9433,1.9481,1.9463,1.9494,1.9547,1.9528,1.958,1.9581,1.9591,1.9623,1.9595,1.9626,1.9608,1.9638,1.9629,1.9681,1.9687,1.9686,1.9684,1.969,1.969,1.9701,1.9695,1.9674,1.9673,1.9673,1.9672,0,1.9543,1.9533,1.9586,1.959,1.9593,1.9631,1.9635,1.9665,1.9661,1.9702,1.971,1.9704,1.9737,1.9728,1.9764,1.9758,1.9825,1.9813,1.982,1.9818,1.9867,1.9863,2.0023,2.0043,1.9895,1.9897,1.9898,0,1.9613,1.9648,1.9656,1.9675,1.9682,1.9713,1.9731,1.9713,1.9733,1.9751,1.9779,1.981,1.9834,1.989,1.9889,1.9917,1.9907,1.9961,1.9911,1.9917,1.991,1.9909,1.9913,1.9972,1.9974,1.9975,1.9976,0,1.9738,1.9731,1.9757,1.9781,1.9803,1.9821,1.9838,1.9855,1.9839,1.9863,1.9897,1.9915,1.9953,1.9985,2.0011,2.0017,1.9995,1.9992,2.0004,2.0012,2.0015,2.0016,1.9849,1.9988,1.9987,1.9986,1.9985,1.9985,1.9831,1.9861,1.9872,1.9902,1.9912,1.9928,1.9957,1.9956,1.9983,2.0012,2.0,2.004,2.0053,2.0086,2.0095,2.0127,2.0106,2.0124,2.0129,2.0134,2.0141,2.0009,2.0131,2.0131,2.013,2.013,2.013,0,1.9956,1.9961,1.9988,2.0012,2.0036,2.0012,2.0029,2.0051,2.0086,2.0099,2.0123,2.0163,2.0194,2.0196,2.0226,2.0251,2.0242,2.0259,2.0258,2.026,2.0157,2.0144,2.0266,2.0266,2.0266,2.0266,2.0266,2.0266,2.0024,2.0075,2.0069,2.0126,2.0131,2.0169,2.0181,2.0196,2.0207,2.0252,2.0278,2.0278,2.0288,2.0318,2.0346,2.0345,2.0359,2.0381,2.0377,2.0281,2.0267,2.0254,2.0242,2.0383,2.0383,2.0478,2.0479,2.0479]}]]